This demonstration page uses our WeatherBlox Daily Observations layout. Learn more.

Left ArrowRight Arrow

38.20091, -84.87328

Hourly Observations for June 26, 2022

Temp ( °F °C ) Dew Point ( °F °C ) Humidity (%) Winds ( mph kmh ) Pressure ( in mb ) Visibility ( mi km ) Precip ( " mm )
12:53 am 00:53 Clear 78 25.6 70 21.1 76 76 VRB 3 6 30.01 1016 10 16 0.00 0.00
1:53 am 01:53 Clear 77 25 70 21.1 79 79 SSE 5 7 30.01 1016 10 16 0.00 0.00
2:53 am 02:53 Clear 76 24.4 70 21.1 82 82 S 5 7 30.00 1016 10 16 0.00 0.00
3:53 am 03:53 Clear 76 24.4 70 21.1 82 82 S 6 9 30.00 1016 10 16 0.00 0.00
4:53 am 04:53 Clear 76 24.4 69 20.6 79 79 S 5 7 30.01 1016 10 16 0.00 0.00
5:53 am 05:53 Mostly Cloudy 76 24.4 69 20.6 79 79 SSW 8 13 30.01 1016 10 16 0.00 0.00
6:53 am 06:53 Sunny 76 24.4 69 20.6 79 79 S 7 11 30.01 1016 10 16 0.00 0.00
7:53 am 07:53 Sunny 78 25.6 71 21.7 79 79 SW 9 15 30.01 1016 10 16 0.00 0.00
8:53 am 08:53 Sunny 79 26.1 71 21.7 77 77 SW 10 17 30.01 1016 10 16 0.00 0.00
9:53 am 09:53 Sunny 81 27.2 70 21.1 69 69 SW 7 11 30.02 1017 10 16 0.00 0.00
10:53 am 10:53 Sunny 83 28.3 70 21.1 65 65 W 5 7 30.04 1017 10 16 0.00 0.00
11:53 am 11:53 Mostly Sunny 84 28.9 70 21.1 63 63 W 5 7 30.07 1018 10 16 0.00 0.00
12:53 pm 12:53 Sunny 84 28.9 69 20.6 61 61 W 5 7 30.07 1018 10 16 0.00 0.00
1:53 pm 13:53 Sunny 86 30 68 20 55 55 WNW 8 13 30.05 1018 10 16 0.00 0.00
2:53 pm 14:53 Sunny 84 28.9 69 20.6 61 61 VRB 6 9 30.05 1018 10 16 0.00 0.00
3:53 pm 15:53 Mostly Sunny 88 31.1 67 19.4 50 50 WNW 8 13 30.02 1017 10 16 0.00 0.00
4:53 pm 16:53 Partly Cloudy 86 30 66 18.9 51 51 VRB 3 6 30.00 1016 10 16 0.00 0.00
5:53 pm 17:53 Cloudy 84 28.9 68 20 59 59 W 6 9 29.99 1016 10 16 0.00 0.00
6:53 pm 18:53 Mostly Cloudy 83 28.3 69 20.6 63 63 WSW 7 11 29.99 1016 10 16 0.00 0.00
7:53 pm 19:53 Partly Cloudy 82 27.8 69 20.6 65 65 W 6 9 30.00 1016 10 16 0.00 0.00
8:53 pm 20:53 Cloudy 80 26.7 69 20.6 69 69 WSW 5 7 30.02 1017 10 16 0.00 0.00
9:53 pm 21:53 Cloudy 79 26.1 69 20.6 72 72 WSW 3 6 30.03 1017 10 16 0.00 0.00
10:53 pm 22:53 Cloudy with Rain 77 25 71 21.7 82 82 WNW 7 11 30.06 1018 5 8 0.00 0.00
11:19 pm 23:19 Mostly Cloudy with Light Rain 75 23.9 72 22.2 90 90 W 7 11 30.06 1018 4 6 0.01 0.25
11:44 pm 23:44 Mostly Cloudy with Light Rain 74 23.3 71 21.7 91 91 WNW 9 15 30.07 1018 9 14 0.01 0.25
11:53 pm 23:53 Mostly Cloudy with Light Rain 73 22.8 70 21.1 90 90 WNW 9 15 30.08 1019 7 11 0.01 0.25

Powered by AerisWeather